Weather History for Alexandroupoli, Greece

Change the Weather History Date:

Tuesday, March 5, 2013

  Actual Average Record
Temperature  
Mean Temperature 44 °F -  
Max Temperature 52 °F 56 °F 60 °F (1998)
Min Temperature 36 °F 40 °F 30 °F (2011)
Degree Days  
Heating Degree Days 21    
Moisture  
Dew Point 32 °F    
Average Humidity 65    
Maximum Humidity 87    
Minimum Humidity 38    
Precipitation  
Precipitation 0.00 in 0.07 in - ()
Sea Level Pressure  
Sea Level Pressure 30.40 in    
Wind  
Wind Speed - ()    
Max Wind Speed -    
Max Gust Speed -    
Visibility 6.0 miles    
Events      
Averages and records for this station are not official NWS values.
T = Trace of Precipitation, MM = Missing Value Source: Averaged Metar Reports

Daily Weather History Graph

Daily Weather History Graph

Search for Another Location

Airport:

Trip Planner

Search our weather history database for the weather conditions in past years. The results will help you decide how hot, cold, wet, or windy it might be!

Date:

Astronomy

Mar. 05, 2013 Rise Set
Actual Time 6:44 AM EET 6:11 PM EET
Civil Twilight 6:16 AM EET 6:39 PM EET
Nautical Twilight 5:45 AM EET 7:11 PM EET
Astronomical Twilight 5:13 AM EET 7:42 PM EET
Moon 1:38 AM EET (3/5) 11:30 AM EET (3/5)
Length of Visible Light 12h 22m
Length of Day
11h 27m
Last Quarter, 44% of the Moon is Illuminated
Mar 5
Last Quarter
Mar 11
New
Mar 19
First Quarter
Mar 27
Full
Apr 3
Last Quarter

Hourly Weather History & Observations

Time (EET) Temp. Dew Point Humidity Pressure Visibility Wind Dir Wind Speed Gust Speed Precip Events Conditions
12:20 AM 39.2 °F 33.8 °F 81% 30.24 in - North - - N/A   Clear
12:50 AM 39.2 °F 33.8 °F 81% 30.24 in - North - - N/A   Clear
2:00 AM 37 °F 33 °F 79% 30.26 in 6 mi Calm Calm - -  
2:50 AM 37.4 °F 32.0 °F 81% 30.24 in - North - - N/A   Clear
3:50 AM 37.4 °F 32.0 °F 81% 30.24 in - North - - N/A   Clear
4:20 AM 37.4 °F 32.0 °F 81% 30.24 in - North - - N/A   Clear
4:50 AM 37.4 °F 33.8 °F 87% 30.24 in - North - - N/A   Clear
5:20 AM 37.4 °F 33.8 °F 87% 30.24 in - North - - N/A   Clear
5:50 AM 37.4 °F 33.8 °F 87% 30.24 in - North - - N/A   Clear
6:20 AM 37.4 °F 33.8 °F 87% 30.24 in - North - - N/A   Clear
6:50 AM 37.4 °F 32.0 °F 81% 30.27 in - North - - N/A   Clear
7:20 AM 37.4 °F 32.0 °F 81% 30.30 in - North - - N/A   Clear
7:50 AM 41.0 °F 33.8 °F 76% 30.36 in - North - - N/A   Partly Cloudy
8:00 AM 41 °F 34 °F 66% 30.38 in 6 mi Calm Calm - -   Scattered Clouds
8:20 AM 41.0 °F 33.8 °F 76% 30.42 in - North - - N/A   Partly Cloudy
8:50 AM 44.6 °F 35.6 °F 71% 30.45 in - North - - N/A   Partly Cloudy
9:20 AM 44.6 °F 35.6 °F 71% 30.45 in - North - - N/A   Partly Cloudy
9:50 AM 46.4 °F 33.8 °F 62% 30.45 in - North - - N/A   Partly Cloudy
10:20 AM 46.4 °F 33.8 °F 62% 30.45 in - North - - N/A   Partly Cloudy
10:50 AM 46.4 °F 35.6 °F 66% 30.48 in - North - - N/A   Partly Cloudy
11:20 AM 46.4 °F 32.0 °F 57% 30.48 in - North - - N/A   Partly Cloudy
11:50 AM 46.4 °F 32.0 °F 57% 30.48 in - North - - N/A   Partly Cloudy
12:20 PM 48.2 °F 32.0 °F 54% 30.48 in - North - - N/A   Partly Cloudy
12:50 PM 48.2 °F 35.6 °F 62% 30.48 in - North - - N/A   Scattered Clouds
1:50 PM 50.0 °F 32.0 °F 50% 30.48 in - North - - N/A   Scattered Clouds
2:00 PM 50 °F 32 °F 38% 30.48 in 6 mi Calm Calm - -   Partly Cloudy
2:20 PM 50.0 °F 32.0 °F 50% 30.48 in - North - - N/A   Scattered Clouds
2:50 PM 51.8 °F 32.0 °F 47% 30.45 in - North - - N/A   Partly Cloudy
3:20 PM 51.8 °F 30.2 °F 44% 30.45 in - North - - N/A   Partly Cloudy
3:50 PM 51.8 °F 30.2 °F 44% 30.42 in - North - - N/A   Partly Cloudy
4:20 PM 50.0 °F 32.0 °F 50% 30.42 in - North - - N/A   Partly Cloudy
4:50 PM 50.0 °F 26.6 °F 40% 30.45 in - North - - N/A   Partly Cloudy
5:20 PM 50.0 °F 26.6 °F 40% 30.45 in - North - - N/A   Partly Cloudy
5:50 PM 48.2 °F 30.2 °F 50% 30.45 in - North - - N/A   Partly Cloudy
6:20 PM 48.2 °F 30.2 °F 50% 30.45 in - North - - N/A   Partly Cloudy
6:50 PM 46.4 °F 33.8 °F 62% 30.45 in - North - - N/A   Partly Cloudy
7:20 PM 46.4 °F 33.8 °F 62% 30.45 in - North - - N/A   Partly Cloudy
7:50 PM 41.0 °F 30.2 °F 65% 30.45 in - North - - N/A   Partly Cloudy
8:00 PM 42 °F 30 °F 52% 30.47 in 6 mi Calm Calm - -   Scattered Clouds
8:20 PM 41.0 °F 30.2 °F 65% 30.45 in - North - - N/A   Partly Cloudy
8:50 PM 41.0 °F 30.2 °F 65% 30.48 in - North - - N/A   Partly Cloudy
9:20 PM 41.0 °F 30.2 °F 65% 30.48 in - North - - N/A   Partly Cloudy
9:50 PM 41.0 °F 32.0 °F 70% 30.48 in - North - - N/A   Clear
10:20 PM 41.0 °F 32.0 °F 70% 3.04 in - North - - N/A   Clear
10:50 PM 39.2 °F 32.0 °F 75% 30.48 in - North - - N/A   Clear
11:20 PM 39.2 °F 32.0 °F 75% 30.48 in - North - - N/A   Clear
11:50 PM 39.2 °F 30.2 °F 70% 30.48 in - North - - N/A   Clear